Home   Weather   Palm Coast   Past weeks
Flag for USA

Past Weather in Palm Coast, Florida, USA — Yesterday and Last 2 Weeks

Now
76 °F

Mild.


Feels Like: 75 °F
Forecast: 84 / 75 °F
Wind: No wind

Location: Palm Coast - MADIS Station

Current Time: Jul 24, 2019 at 3:24:50 am

Latest Report: Jul 24, 2019 at 2:30 am


Visibility: N/A

Pressure: 29.92 "Hg

Humidity: 97%

Dew Point: 75 °F

Location of Palm CoastLocation

Past Weather in Palm Coast — Graph

°F

Palm Coast Temperature Yesterday

Maximum temperature yesterday: 89 °F (at 12:15 pm)
Minimum temperature yesterday: 72 °F (at 6:15 am)
Average temperature yesterday: 80 °F

High & Low Weather Summary for the Past Weeks

 TemperatureHumidityPressure
High96 °F (Jul 16, 1:00 pm)99% (Jul 11, 6:17 am)30.18 "Hg (Jul 11, 6:17 am)
Low70 °F (Jul 22, 3:45 am)54% (Jul 15, 1:30 pm)29.89 "Hg (Jul 23, 3:46 pm)
Average81 °F85%30.06 "Hg
* Reported Jul 9 2:00 am — Jul 24 2:00 am, Palm Coast. Weather by CustomWeather, © 2019

Note: Actual official high and low records may vary slightly from our data, if they occured in-between our weather recording intervals... More about our weather records

Advertising

Palm Coast Weather History for the Previous 24 Hours

Scroll right to see more
 ConditionsComfort  
Time TempWeatherWind HumidityBarometerVisibility
2:00 am
Wed, Jul 24
76 °FMild.No wind96%29.93 "HgN/A
1:45 am76 °FMild.No wind96%29.94 "HgN/A
1:30 am77 °FMild.No wind96%29.94 "HgN/A
1:15 am77 °FMild.No wind96%29.95 "HgN/A
12:45 am77 °FMild.No wind96%29.96 "HgN/A
12:15 am77 °FMild.No wind95%29.96 "HgN/A
11:45 pm
Tue, Jul 23
77 °FMild.No wind95%29.96 "HgN/A
11:30 pm77 °FMild.No wind94%29.96 "HgN/A
11:15 pm77 °FMild.No wind94%29.96 "HgN/A
10:16 pm78 °FMild.No wind93%29.93 "HgN/A
9:16 pm79 °FMild.No wind92%29.92 "HgN/A
9:01 pm79 °FMild.No wind92%29.92 "HgN/A
8:31 pm79 °FMild.No wind90%29.91 "HgN/A
7:46 pm81 °FWarm.No wind89%29.91 "HgN/A
7:17 pm81 °FWarm.No wind88%29.90 "HgN/A
7:01 pm80 °FMild.No wind88%29.90 "HgN/A
6:46 pm81 °FWarm.No wind87%29.90 "HgN/A
6:16 pm80 °FMild.No wind91%29.89 "HgN/A
5:32 pm78 °FMild.No wind95%29.91 "HgN/A
5:16 pm78 °FMild.No wind94%29.92 "HgN/A
4:31 pm77 °FMild.3 mph92%29.93 "HgN/A
3:46 pm86 °FWarm.1 mph77%29.89 "HgN/A
3:16 pm88 °FWarm.No wind77%29.90 "HgN/A
3:02 pm88 °FWarm.No wind76%29.90 "HgN/A
2:31 pm87 °FWarm.1 mph77%29.92 "HgN/A
2:00 pm86 °FWarm.2 mph75%29.93 "HgN/A
1:46 pm88 °FWarm.No wind74%29.94 "HgN/A
1:30 pm87 °FWarm.No wind74%29.94 "HgN/A
12:45 pm89 °FWarm.No wind71%29.95 "HgN/A
12:15 pm89 °FWarm.No wind64%29.96 "HgN/A
11:45 am88 °FWarm.No wind70%29.97 "HgN/A
11:15 am85 °FWarm.3 mph75%29.98 "HgN/A
11:00 am85 °FWarm.1 mph75%29.99 "HgN/A
10:46 am85 °FWarm.1 mph77%29.98 "HgN/A
10:15 am85 °FWarm.No wind75%29.98 "HgN/A
9:02 am80 °FMild.No wind86%29.97 "HgN/A
8:31 am78 °FMild.No wind91%29.97 "HgN/A
8:16 am77 °FMild.No wind93%29.97 "HgN/A
8:01 am76 °FMild.No wind96%29.97 "HgN/A
7:16 am72 °FMild.No wind98%29.97 "HgN/A
6:15 am72 °FMild.No wind97%29.96 "HgN/A
6:01 am73 °FMild.No wind97%29.96 "HgN/A
5:16 am73 °FMild.No wind97%29.95 "HgN/A
4:16 am73 °FMild.No wind96%29.96 "HgN/A
4:00 am74 °FMild.No wind96%29.97 "HgN/A
3:30 am74 °FMild.No wind95%29.97 "HgN/A
3:00 am74 °FMild.No wind95%29.98 "HgN/A
Weather by CustomWeather, © 2019

See weather overview